Location: Austin
(30.3000°N, 97.7500°W)
Time: 04:57:31
(UTC-06:00)

IRS-1D - Pass Details

Date: 05 February 2026
Orbit: 737 x 810 km, 98.8° (Epoch: 14 February)

Event Time Altitude Azimuth Distance (km) Brightness Sun altitude
Rises 05:40:06 0° 10° (N) 3,307 6.8 -21.7°
Reaches altitude 10° 05:42:27 10° 9° (N) 2,365 6.1 -21.2°
Maximum altitude 05:47:40 75° 285° (WNW) 812 3.4 -20.1°
Drops below altitude 10° 05:52:44 10° 200° (SSW) 2,306 5.8 -19.0°
Sets 05:55:01 0° 199° (SSW) 3,218 6.6 -18.5°
